Location: Central Falls
(41.8900°N, 71.3929°W)
Time: 15:11:49
(UTC+00:00)

SR - Pass Details

Date: 09 December 2023
Orbit: 574 x 867 km, 66.7° (Epoch: 28 February)

Event Time Altitude Azimuth Distance (km) Brightness Sun altitude
Rises 23:37:21 0° 331° (NNW) 3,447 ? -25.8°
Reaches altitude 10° 23:39:55 10° 334° (NNW) 2,489 ? -26.3°
Enters shadow 23:44:25 51° 1° (N) 1,032 ? -27.1°
